[[{"header":{"parameterUnit":"m.s-1","parameterCategory":1,"la1":30.2992,"la2":30.254,"lo1":-89.0895,"lo2":-89.0443,"dy":0.0025,"dx":0.0025,"nx":19,"ny":19,"refTime":"2026-03-17T21:00:00:Z","depth":0,"parameterNumber":2,"parameterNumberName":"U-component_of_WINDS"},"data":[0,0,0,0.6885,0.6883,0.6798,0.6797,0.6697,0.6696,0,0,0,0,0,0,0,0,0,0,0,0.6918,0.6918,0.6885,0.6883,0.6798,0.6797,0.6697,0.6696,0,0,0,0,0,0,0,0,0,0,0,0.6919,0.6918,0.6918,0.6883,0.6798,0.6797,0.6697,0.6757,0,0,0,0,0,0,0,0,0,0,0.6838,0.6879,0.6918,0.6918,0.6882,0.6798,0.6797,0.676,0.6754,0.674,0,0.6733,0,0.6713,0.669,0.669,0,0,0,0.6875,0.6885,0.6854,0.6918,0.6881,0.6798,0.6834,0.6756,0.6749,0.6731,0.6732,0.6728,0.6712,0.6689,0.6689,0.6641,0.6642,0,0,0.688,0.6907,0.6859,0.685,0.6868,0.6837,0.6832,0.6752,0.6753,0.6731,0.6725,0.671,0.6689,0.6688,0.6641,0.6642,0,0,0,0.6899,0.6911,0.6882,0.6854,0.6839,0.6835,0.6828,0.6756,0.6745,0.6724,0.6709,0.6688,0.6687,0.6641,0.6641,0.6674,0,0,0,0.6901,0.6921,0.6884,0.69,0.684,0.6797,0.6835,0.675,0.674,0.6709,0.6688,0.6686,0.6641,0.6641,0.6673,0.6685,0,0,0,0.6921,0.6924,0.6915,0.6901,0.6866,0.6798,0.6781,0.6747,0.6731,0.669,0.6686,0.6641,0.6641,0.6672,0.6683,0.6679,0,0,0,0.6949,0.6944,0.6916,0.6904,0.6867,0.682,0.6782,0.6744,0.6713,0.6688,0.6641,0.6641,0.6672,0.6682,0.6678,0.6681,0.6685,0,0,0.6958,0.6946,0.6937,0.6909,0.6875,0.6831,0.6799,0.6743,0.6713,0.6666,0.6664,0.6673,0.6683,0.6679,0.67,0.6704,0,0,0,0.6949,0.6943,0.6927,0.69,0.6859,0.6823,0.677,0.6748,0.6708,0.6696,0.6671,0.6675,0.6672,0.6672,0.6675,0.667,0.6643,0.6643,0.6643,0.6999,0.6963,0.6944,0.6898,0.6871,0.6816,0.6789,0.675,0.672,0.6715,0.6701,0.6718,0.6719,0.6721,0.6716,0.67,0.67,0.67,0.67,0.7007,0.6992,0.6953,0.6921,0.6882,0.6853,0.6798,0.6778,0.6743,0.6726,0.6721,0.6705,0.6726,0.672,0.6702,0.6702,0.6701,0.6701,0.6701,0.7035,0.7021,0.6997,0.6953,0.6922,0.6873,0.6842,0.6807,0.6772,0.6768,0.6747,0.6747,0.674,0.6761,0.6761,0.6761,0.6761,0.6761,0.6761,0.7073,0.7045,0.7025,0.6981,0.6958,0.6922,0.6866,0.6841,0.6803,0.6779,0.6779,0.6748,0.6736,0.6733,0.6762,0.6762,0.6762,0.6762,0.6762,0.7093,0.7083,0.7052,0.703,0.6973,0.6944,0.6899,0.6851,0.6824,0.681,0.678,0.6777,0.6762,0.6759,0.6756,0.6789,0.6789,0.6789,0.6789,0.7116,0.7105,0.7065,0.7031,0.6992,0.6949,0.6911,0.6867,0.6818,0.6798,0.6789,0.6782,0.6781,0.6766,0.6763,0.676,0.6793,0.6793,0.6793,0.7125,0.7109,0.7086,0.7042,0.6995,0.6954,0.6917,0.6876,0.6818,0.6792,0.6782,0.6782,0.6771,0.677,0.6744,0.674,0.6734,0,0]},{"header":{"parameterUnit":"m.s-1","parameterCategory":1,"la1":30.2992,"la2":30.254,"lo1":-89.0895,"lo2":-89.0443,"dy":0.0025,"dx":0.0025,"nx":19,"ny":19,"refTime":"2026-03-17T21:00:00:Z","depth":0,"parameterNumber":3,"parameterNumberName":"V-component_of_WINDS"},"data":[0,0,0,0.607,0.6072,0.6167,0.6167,0.6287,0.6288,0,0,0,0,0,0,0,0,0,0,0,0.6042,0.6043,0.607,0.6072,0.6167,0.6167,0.6286,0.6288,0,0,0,0,0,0,0,0,0,0,0,0.6042,0.6043,0.6044,0.6073,0.6167,0.6167,0.6286,0.6215,0,0,0,0,0,0,0,0,0,0,0.6124,0.6098,0.6043,0.6044,0.6073,0.6167,0.6167,0.6212,0.622,0.6243,0,0.6265,0,0.6278,0.6296,0.6296,0,0,0,0.6072,0.6092,0.6117,0.6044,0.6074,0.6167,0.6124,0.6216,0.6225,0.6254,0.6267,0.6271,0.628,0.6296,0.6297,0.6433,0.6434,0,0,0.6067,0.606,0.6111,0.6123,0.6109,0.6121,0.6127,0.6222,0.6235,0.6267,0.6274,0.6282,0.6297,0.6298,0.6433,0.6433,0,0,0,0.6052,0.6056,0.6079,0.6118,0.6135,0.6124,0.6131,0.6231,0.6239,0.6276,0.6284,0.6298,0.6299,0.6432,0.6433,0.6457,0,0,0,0.6049,0.6047,0.6076,0.6073,0.6133,0.6185,0.6138,0.6233,0.6244,0.6283,0.6298,0.6301,0.6431,0.6433,0.6454,0.6469,0,0,0,0.6036,0.6046,0.6059,0.6072,0.6113,0.6183,0.6197,0.6235,0.6249,0.6296,0.6301,0.6431,0.6432,0.6453,0.6466,0.6502,0,0,0,0.602,0.6081,0.606,0.6129,0.6112,0.6197,0.6196,0.626,0.6304,0.6299,0.6432,0.6433,0.6452,0.6464,0.65,0.653,0.6543,0,0,0.6092,0.6089,0.6131,0.6114,0.6201,0.6183,0.6273,0.6321,0.6333,0.6399,0.6402,0.6455,0.6466,0.6501,0.6613,0.6623,0,0,0,0.6151,0.618,0.6205,0.6246,0.6282,0.6314,0.6349,0.6365,0.6422,0.6365,0.6478,0.6485,0.6506,0.6521,0.6529,0.6547,0.644,0.6439,0.6439,0.6243,0.6252,0.6321,0.6342,0.6381,0.6413,0.6445,0.6474,0.6474,0.65,0.652,0.6587,0.6604,0.661,0.6629,0.6537,0.6537,0.6537,0.6537,0.6348,0.6391,0.6387,0.6452,0.6461,0.6516,0.6548,0.6546,0.6597,0.6573,0.6592,0.6566,0.662,0.6637,0.6539,0.6539,0.6539,0.6539,0.6538,0.641,0.6432,0.645,0.6507,0.655,0.6568,0.6616,0.6623,0.6631,0.6649,0.667,0.667,0.6669,0.6658,0.6659,0.6659,0.6659,0.6659,0.6659,0.6466,0.6486,0.6526,0.6567,0.6592,0.6626,0.6657,0.6681,0.671,0.6712,0.6712,0.6708,0.6624,0.6602,0.6663,0.6662,0.6662,0.6662,0.6661,0.657,0.6547,0.6609,0.6634,0.6681,0.6721,0.6728,0.6777,0.6798,0.6821,0.6812,0.6749,0.6746,0.674,0.6722,0.681,0.681,0.681,0.681,0.6622,0.662,0.6684,0.6722,0.6761,0.6772,0.684,0.6862,0.6882,0.6896,0.6883,0.686,0.6853,0.6855,0.6846,0.683,0.6943,0.6943,0.6943,0.6686,0.6688,0.6745,0.6763,0.6799,0.6829,0.6892,0.6935,0.6953,0.6949,0.6905,0.69,0.6862,0.685,0.6846,0.6832,0.6802,0,0]}]]